Date String (YYYY-MM-DD hh:mm:ss) UTC,Instrument flags,Ambient pressure (hPa),Sample flow (lpm),Bypass flow (lpm),Sample temperature (°C),Ambient temperature (°C),ASC tube jacket temperature (°C),LED temperature (°C),Box temperature (°C),Sample RH (%),Span deviation,Mass concentration (μg/m³),Mass concentration (μg/m³),Mass concentration (μg/m³)
DateTimeUTC,F1_M11,P_M11,Q1_M11,Q2_M11,T1_M11,T2_M11,T3_M11,T4_M11,T5_M11,U1_M11,ZSPAN_M11,X2_M11,X0_M11,X1_M11
2021-10-06 02:00:00,,0828.9,5.01,0.00,29.4,27.1,00.0,38.5,31.1,15.3,0000.0,0004.75,0015.30,0003.51
2021-10-06 02:01:00,,0828.9,4.99,0.00,29.4,27.4,00.0,38.5,31.1,15.3,0000.0,0004.71,0016.11,0003.51
2021-10-06 02:02:00,,0828.9,5.00,0.00,29.4,27.7,00.0,38.5,31.2,15.3,0000.0,0004.67,0015.56,0003.51
2021-10-06 02:03:00,,0828.9,4.99,0.00,29.4,27.9,00.0,38.5,31.2,15.3,0000.0,0004.66,0015.87,0003.52
2021-10-06 02:04:00,,0828.9,5.00,0.00,29.5,28.0,00.0,38.5,31.3,15.3,0000.0,0004.68,0016.32,0003.53
2021-10-06 02:05:00,,0828.9,4.99,0.00,29.5,28.2,00.0,38.5,31.3,15.3,0000.0,0004.71,0017.09,0003.55
2021-10-06 02:06:00,,0829.0,5.01,0.00,29.5,28.3,00.0,38.5,31.4,15.2,0000.0,0004.73,0017.65,0003.57
2021-10-06 02:07:00,,0829.0,4.99,0.00,29.6,28.4,00.0,38.5,31.4,15.1,0000.0,0004.75,0018.38,0003.58
2021-10-06 02:08:00,,0829.0,4.98,0.00,29.6,28.5,00.0,38.6,31.5,15.0,0000.0,0004.74,0018.28,0003.58
2021-10-06 02:09:00,,0829.0,5.01,0.00,29.6,28.6,00.0,38.6,31.5,14.9,0000.0,0004.71,0018.53,0003.58
2021-10-06 02:10:00,,0829.0,5.00,0.00,29.7,28.7,00.0,38.6,31.6,14.7,0000.0,0004.69,0018.58,0003.58
2021-10-06 02:11:00,,0829.0,4.99,0.00,29.7,28.7,00.0,38.6,31.6,14.6,0000.0,0004.72,0018.15,0003.58
2021-10-06 02:12:00,,0829.0,5.01,0.00,29.7,28.5,00.0,38.7,31.5,14.5,0000.0,0004.78,0017.57,0003.59
2021-10-06 02:13:00,,0829.0,5.00,0.00,29.6,26.7,00.0,38.6,31.1,14.4,0000.0,0004.80,0018.21,0003.59
2021-10-06 02:14:00,,0829.0,5.00,0.00,29.5,26.2,00.0,38.6,30.9,14.4,0000.0,0004.80,0018.00,0003.60
2021-10-06 02:15:00,,0829.0,5.00,0.00,29.4,26.5,00.0,38.6,31.0,14.4,0000.0,0004.80,0018.17,0003.61
2021-10-06 02:16:00,,0829.0,5.01,0.00,29.4,26.9,00.0,38.6,31.0,14.4,0000.0,0004.84,0018.25,0003.62
2021-10-06 02:17:00,,0829.0,4.99,0.00,29.4,27.3,00.0,38.5,31.1,14.4,0000.0,0004.85,0019.13,0003.61
2021-10-06 02:18:00,,0829.0,5.00,0.00,29.4,27.6,00.0,38.5,31.2,14.4,0000.0,0004.76,0018.97,0003.60
2021-10-06 02:19:00,,0829.0,5.01,0.00,29.4,27.8,00.0,38.5,31.2,14.4,0000.5,0004.73,0018.16,0003.60
2021-10-06 02:20:00,,0829.0,4.99,0.00,29.5,28.1,00.0,38.5,31.3,14.4,0000.3,0004.71,0017.71,0003.60
2021-10-06 02:21:00,,0829.1,5.00,0.00,29.5,28.3,00.0,38.5,31.3,14.4,0000.0,0004.67,0017.59,0003.59
2021-10-06 02:22:00,,0829.0,4.99,0.00,29.5,28.4,00.0,38.5,31.4,14.3,0000.3,0004.64,0017.81,0003.60
2021-10-06 02:23:00,,0829.1,4.99,0.00,29.6,28.6,00.0,38.5,31.4,14.4,0002.6,0004.59,0018.24,0003.60
2021-10-06 02:24:00,,0829.1,4.99,0.00,29.6,28.7,00.0,38.5,31.4,14.4,0000.6,0004.56,0017.28,0003.60
2021-10-06 02:25:00,,0829.1,5.00,0.00,29.6,28.8,00.0,38.6,31.5,14.3,0001.0,0004.54,0016.38,0003.61
2021-10-06 02:26:00,,0829.1,5.02,0.00,29.7,28.9,00.0,38.6,31.5,14.2,0002.4,0004.55,0015.68,0003.61
2021-10-06 02:27:00,,0829.1,4.99,0.00,29.7,28.9,00.0,38.6,31.6,14.2,0001.5,0004.53,0015.55,0003.61
2021-10-06 02:28:00,,0829.1,4.99,0.00,29.8,29.0,00.0,38.7,31.6,14.1,0001.2,0004.50,0014.49,0003.62
2021-10-06 02:29:00,,0829.1,5.01,0.00,29.7,27.9,00.0,38.7,31.3,14.0,0002.7,0004.56,0014.07,0003.64
2021-10-06 02:30:00,,0829.0,4.99,0.00,29.6,26.3,00.0,38.6,30.9,14.1,0002.6,0004.55,0013.89,0003.64
2021-10-06 02:31:00,,0829.1,5.00,0.00,29.5,26.3,00.0,38.6,30.9,14.0,0002.3,0004.59,0014.26,0003.65
2021-10-06 02:32:00,,0829.1,5.00,0.00,29.4,26.6,00.0,38.6,31.0,14.1,0002.2,0004.66,0014.67,0003.67
2021-10-06 02:33:00,,0829.1,5.00,0.00,29.4,27.1,00.0,38.6,31.0,14.1,0002.2,0004.71,0015.08,0003.67
2021-10-06 02:34:00,,0829.1,5.00,0.00,29.4,27.4,00.0,38.5,31.1,14.0,0002.3,0004.78,0014.70,0003.70
2021-10-06 02:35:00,,0829.1,5.00,0.00,29.4,27.7,00.0,38.5,31.2,14.1,0002.1,0004.79,0015.01,0003.71
2021-10-06 02:36:00,,0829.1,5.00,0.00,29.5,28.0,00.0,38.5,31.2,14.0,0002.2,0004.80,0015.00,0003.72
2021-10-06 02:37:00,,0829.0,5.01,0.00,29.5,28.2,00.0,38.5,31.3,14.1,0002.4,0004.81,0015.73,0003.73
2021-10-06 02:38:00,,0829.0,5.00,0.00,29.5,28.4,00.0,38.5,31.3,14.0,0002.6,0004.79,0016.19,0003.72
2021-10-06 02:39:00,,0829.0,5.00,0.00,29.5,28.5,00.0,38.6,31.4,14.0,0003.2,0004.80,0015.53,0003.73
2021-10-06 02:40:00,,0829.0,5.00,0.00,29.6,28.6,00.0,38.6,31.4,13.9,0002.7,0004.77,0014.76,0003.74
2021-10-06 02:41:00,,0829.0,5.01,0.00,29.6,28.7,00.0,38.6,31.5,13.8,0000.5,0004.80,0014.32,0003.75
2021-10-06 02:42:00,,0829.1,4.99,0.00,29.7,28.8,00.0,38.6,31.5,13.8,0000.0,0004.81,0014.37,0003.76
2021-10-06 02:43:00,,0829.0,5.01,0.00,29.7,28.9,00.0,38.6,31.6,13.8,0000.0,0004.76,0013.91,0003.77
2021-10-06 02:44:00,,0829.1,4.99,0.00,29.7,28.9,00.0,38.7,31.6,13.8,0000.5,0004.68,0012.78,0003.77
2021-10-06 02:45:00,,0829.1,5.01,0.00,29.8,29.0,00.0,38.7,31.6,13.8,0001.4,0004.65,0012.49,0003.77
2021-10-06 02:46:00,,0829.0,5.01,0.00,29.8,29.1,00.0,38.7,31.6,13.8,0000.4,0004.69,0012.37,0003.77
2021-10-06 02:47:00,,0829.1,5.00,0.00,29.8,28.2,00.0,38.7,31.4,13.8,0000.0,0004.75,0012.53,0003.78
2021-10-06 02:48:00,,0829.1,4.99,0.00,29.7,26.4,00.0,38.7,31.0,13.9,0000.0,0004.77,0012.07,0003.79
2021-10-06 02:49:00,,0829.0,5.01,0.00,29.6,26.3,00.0,38.7,30.9,14.0,0000.0,0004.78,0010.87,0003.79
2021-10-06 02:50:00,,0829.0,4.98,0.00,29.5,26.6,00.0,38.6,31.0,14.1,0000.0,0004.75,0010.89,0003.79
2021-10-06 02:51:00,,0829.0,5.01,0.00,29.4,27.0,00.0,38.6,31.0,14.1,0000.5,0004.79,0011.95,0003.79
2021-10-06 02:52:00,,0829.1,5.00,0.00,29.4,27.4,00.0,38.6,31.1,14.1,0001.0,0004.78,0012.38,0003.79
2021-10-06 02:53:00,,0829.1,5.00,0.00,29.5,27.7,00.0,38.6,31.1,14.1,0000.8,0004.78,0011.99,0003.79
2021-10-06 02:54:00,,0829.1,5.00,0.00,29.5,28.0,00.0,38.6,31.2,14.1,0000.4,0004.80,0011.87,0003.78
2021-10-06 02:55:00,,0829.0,5.00,0.00,29.5,28.2,00.0,38.6,31.3,14.1,0000.5,0004.86,0012.74,0003.78
2021-10-06 02:56:00,,0829.0,5.00,0.00,29.5,28.3,00.0,38.6,31.3,14.1,0000.6,0004.90,0013.64,0003.77
2021-10-06 02:57:00,,0829.0,5.00,0.00,29.6,28.5,00.0,38.6,31.4,14.0,0000.3,0004.87,0013.30,0003.77
2021-10-06 02:58:00,,0829.0,5.00,0.00,29.6,28.6,00.0,38.6,31.4,14.0,0001.0,0004.89,0013.69,0003.77
2021-10-06 02:59:00,,0829.0,5.00,0.00,29.6,28.7,00.0,38.6,31.5,14.0,0001.5,0004.86,0014.41,0003.78
